Theta_e
308 308 308 308 308 309 309 308 308 308 307 305 303 301 299 297 296 295 294 293 293 293 292 292 292 292 292 291 292 292 292 291 291 291 290 289 289 289 288 288 287 287 287 287 287 287 287 287 287 286 285 285 285 284 284 284 283 283 283 282 282 280 280 279 278 282 286 287 286 286 285 285 286 285 282 284 283 281 280 279 277 278 278 278 279
309 309 308 307 307 308 308 308 307 307 307 306 304 302 300 298 296 295 294 293 293 293 292 292 292 291 291 291 291 291 291 291 291 291 290 289 289 288 288 288 287 287 287 287 287 287 287 287 286 286 285 285 284 284 284 284 283 283 283 282 281 281 279 279 278 278 282 286 286 286 286 284 285 287 284 283 282 279 277 278 277 277 277 277 278
310 308 307 306 305 305 306 307 306 305 305 305 305 303 301 298 297 295 294 293 293 292 292 292 291 291 291 291 291 291 291 291 291 290 290 289 289 288 288 287 287 287 287 287 287 286 286 286 286 285 285 284 284 284 283 283 283 283 283 282 281 281 279 277 277 276 277 283 284 285 286 285 284 285 283 281 280 278 276 276 277 277 277 277 277
309 308 307 306 305 303 304 305 305 304 304 304 304 304 301 298 297 295 294 293 293 292 292 291 291 291 291 291 291 291 291 291 290 290 289 289 288 288 287 287 287 287 287 287 286 286 286 286 285 285 284 284 284 283 283 283 283 283 282 282 281 280 278 276 276 276 275 278 282 283 283 283 283 283 280 279 279 277 275 276 276 276 277 277 276
308 308 307 305 304 303 303 304 305 304 303 302 302 302 301 299 296 295 294 293 292 292 291 291 291 291 291 291 291 291 291 290 290 290 289 288 288 288 287 287 287 287 287 286 286 286 286 285 285 284 284 283 283 283 283 283 283 283 282 281 280 278 276 275 275 276 275 275 278 280 280 279 280 280 278 277 278 276 276 276 276 276 276 277 277
307 307 306 305 304 303 302 303 305 305 303 302 301 300 299 298 296 295 294 293 292 292 291 291 291 291 291 290 291 291 290 290 290 289 289 288 288 287 287 287 286 286 286 286 286 285 285 285 285 284 283 283 283 283 283 283 283 282 281 279 278 276 275 276 275 275 276 275 276 278 278 277 277 277 277 276 276 276 276 276 276 276 276 276 277
307 306 305 304 304 303 302 303 305 305 304 302 300 298 297 297 296 295 294 293 292 291 291 291 290 290 290 290 290 290 290 290 290 289 288 288 287 287 287 286 286 286 286 286 286 285 285 285 284 284 283 282 282 282 283 283 282 281 279 277 276 276 276 276 276 276 276 276 276 276 277 277 277 277 277 276 276 276 276 276 276 276 276 277 277
307 306 304 303 303 303 302 302 302 304 303 301 299 297 296 295 294 294 293 292 292 291 291 290 290 290 290 290 290 290 290 290 289 289 288 288 287 287 286 286 286 286 286 285 285 285 285 285 284 283 282 282 282 282 282 282 280 278 277 276 276 276 276 276 277 277 277 276 277 277 277 277 277 277 277 276 276 276 276 276 277 277 277 277 277
307 305 304 303 303 302 302 300 300 301 301 300 298 297 296 294 294 293 292 292 292 291 290 290 290 290 290 290 290 289 289 289 289 288 288 287 287 286 286 286 286 286 285 285 285 285 284 284 283 283 282 282 282 282 281 279 278 277 276 276 276 277 277 277 277 277 277 277 277 277 277 277 277 277 277 277 277 277 277 277 277 277 277 277 277
307 305 304 303 303 301 301 300 299 298 299 299 298 297 295 294 293 293 292 291 291 290 290 289 289 289 289 290 289 289 289 289 288 288 287 287 286 286 286 285 285 285 285 285 284 284 284 284 283 282 281 282 282 281 279 278 276 276 277 276 277 277 277 277 277 277 277 277 277 277 277 277 277 277 277 277 277 277 277 277 277 277 277 277 278
307 306 305 303 302 301 300 300 299 298 298 298 297 296 295 294 293 292 291 291 291 290 289 289 289 289 289 289 289 289 289 288 288 287 287 286 286 286 285 285 286 285 285 284 284 284 283 283 282 281 281 281 281 280 279 277 276 276 276 276 277 277 277 277 277 277 277 277 277 277 278 278 278 277 277 277 277 277 277 277 277 277 277 278 278
306 305 304 303 301 300 300 300 298 297 297 297 296 296 295 294 293 292 291 291 291 290 289 289 289 289 289 289 289 289 288 288 287 287 286 286 286 286 286 286 286 285 285 284 283 283 282 282 281 281 281 281 280 279 278 277 276 275 276 276 276 277 277 277 277 277 277 277 278 277 278 278 277 277 277 277 277 277 277 277 277 277 277 278 278
306 304 303 302 301 301 300 299 298 297 297 297 296 295 294 293 293 292 291 291 291 290 289 289 289 289 289 288 288 288 288 287 287 286 286 286 286 286 286 286 286 285 284 283 282 282 281 281 280 280 280 280 280 279 278 277 276 275 275 276 276 276 276 277 277 277 277 277 277 277 277 277 277 277 277 277 277 277 277 277 277 277 277 277 277
305 304 302 302 301 300 299 299 298 297 296 296 295 294 294 293 292 291 291 290 290 289 289 288 288 288 288 288 288 288 287 287 286 286 286 286 286 286 286 285 285 284 283 282 282 281 280 280 280 280 280 280 280 279 277 276 275 275 275 275 276 276 276 276 276 277 277 277 277 276 276 276 277 277 277 277 277 277 277 277 277 277 277 278 278
305 303 302 302 301 300 299 298 297 296 296 295 294 294 293 292 291 291 290 290 290 289 289 288 288 288 287 287 287 287 286 286 286 286 286 286 286 285 285 284 284 283 282 281 281 280 280 280 280 280 279 279 279 278 276 275 275 275 275 276 275 275 275 275 276 276 276 276 276 277 277 277 277 277 278 278 278 278 278 278 278 278 278 278 279
304 303 303 302 301 300 299 298 297 296 295 294 294 293 293 292 291 290 290 289 289 288 288 288 288 287 287 287 287 286 286 286 287 287 287 286 285 285 284 284 283 282 281 281 280 280 280 279 279 279 279 278 278 277 275 275 275 275 275 275 275 275 275 275 276 276 276 277 277 277 277 277 278 278 278 278 278 278 279 279 279 279 279 279 279
305 304 303 303 302 300 299 298 297 296 295 294 294 293 292 291 290 290 289 289 289 288 288 287 287 287 287 287 286 286 287 288 288 287 286 286 285 284 284 283 282 281 280 280 280 279 279 279 279 278 277 277 277 276 275 275 275 275 275 275 275 275 275 275 275 275 275 275 276 276 276 276 277 277 277 278 278 278 278 278 278 279 279 280 280
306 305 305 304 302 301 299 297 296 296 295 294 294 293 292 291 290 290 289 289 289 288 287 287 287 286 286 286 286 287 288 288 288 287 286 285 284 284 283 282 281 280 280 280 279 279 279 279 279 278 277 277 277 276 275 275 275 275 275 275 275 275 275 275 275 274 274 274 275 275 275 275 276 276 276 276 276 276 276 276 277 278 278 279 279
307 308 307 305 303 300 299 298 297 296 296 295 294 293 292 291 290 289 289 289 288 288 287 287 286 286 286 286 287 288 288 288 287 287 286 284 284 283 283 282 281 280 280 279 279 279 279 279 278 277 277 277 277 276 275 275 275 275 275 274 274 275 275 275 274 274 274 274 274 274 274 274 274 274 275 275 275 275 275 276 276 277 277 278 278
306 306 306 305 303 301 299 298 297 297 296 294 293 292 291 290 289 289 288 288 287 287 286 286 286 286 286 286 288 288 288 288 287 286 285 284 283 283 282 281 280 279 279 279 278 278 278 278 278 277 277 277 277 275 274 275 275 274 274 274 274 275 275 274 273 274 273 273 274 274 274 275 275 274 274 274 274 275 275 276 277 278 278 279 279
303 302 301 301 301 301 299 298 297 295 294 293 292 291 290 289 289 288 288 287 286 286 286 286 286 285 286 287 288 288 288 287 286 285 284 283 282 282 281 280 279 279 279 278 277 277 278 278 277 277 277 277 276 275 274 275 275 274 274 274 274 274 274 273 273 274 274 274 275 275 275 275 275 274 273 272 273 274 275 276 277 278 279 280 280
302 301 300 299 298 298 297 296 295 294 292 291 291 290 289 288 288 287 287 286 285 285 285 285 285 286 287 288 288 287 287 287 285 284 283 282 282 281 280 279 279 279 278 277 276 277 277 276 277 277 277 276 275 275 275 275 274 274 275 275 274 274 273 273 274 274 275 275 275 275 275 274 273 271 271 271 272 273 273 274 276 277 278 279 279
301 300 299 298 298 297 296 295 294 293 292 291 289 289 289 288 287 286 286 285 285 285 285 285 285 286 287 287 287 286 286 285 284 283 282 282 281 280 279 279 279 279 278 277 277 277 277 276 277 277 275 274 274 275 275 274 275 275 275 274 274 273 273 274 274 275 275 274 273 272 272 271 270 270 270 271 271 271 272 273 274 276 277 278 278
300 300 300 299 298 297 296 295 294 292 291 290 289 288 288 287 286 286 285 285 285 285 285 285 285 286 286 286 286 286 285 283 282 282 281 280 280 279 279 278 279 278 277 277 277 277 277 276 276 275 274 274 274 274 274 275 275 274 274 274 274 274 274 274 274 274 272 271 270 270 270 270 270 270 270 270 271 271 271 272 273 274 276 277 278
302 301 300 299 298 297 296 294 293 292 291 290 289 288 287 287 286 285 284 284 284 285 285 285 286 286 286 286 286 285 284 282 281 281 280 280 280 279 278 279 279 278 277 277 277 277 276 276 275 274 274 274 274 274 275 275 274 274 274 274 274 274 274 274 273 272 270 269 269 269 269 270 270 270 270 270 270 271 271 271 272 273 274 275 276
303 302 301 300 299 297 296 294 293 291 290 288 287 287 287 286 285 284 283 283 284 284 285 286 286 286 286 286 286 284 283 281 280 280 280 280 279 279 279 279 278 278 277 277 277 277 276 275 275 274 274 274 274 274 274 274 274 274 274 274 274 274 274 273 272 270 269 269 269 269 269 269 270 270 270 270 271 271 271 271 271 272 272 273 274
302 302 301 300 299 299 298 296 294 291 289 288 287 286 286 286 285 284 284 283 283 284 285 286 286 287 286 286 284 283 282 281 280 280 279 279 278 278 279 279 278 277 277 277 277 276 276 275 274 274 274 274 274 274 274 274 274 274 273 273 274 273 273 272 271 270 269 269 269 269 269 269 270 270 270 271 271 271 271 271 271 271 271 272 272
301 300 300 300 300 299 299 298 295 292 289 288 287 286 285 285 284 284 284 284 284 284 285 286 287 287 287 286 284 282 281 280 280 279 279 278 278 279 279 278 278 277 276 276 276 276 275 274 273 273 274 274 275 275 275 275 274 274 273 273 273 273 273 272 271 270 269 269 269 269 269 269 270 270 271 271 271 271 271 271 271 271 271 271 272
300 300 300 299 299 298 297 296 294 292 289 288 286 285 285 285 284 283 284 284 284 285 286 287 287 288 288 287 285 283 281 281 280 279 278 278 278 279 278 277 277 276 276 275 275 274 274 274 274 274 274 275 275 275 275 274 274 274 273 273 273 273 272 272 271 270 269 269 269 269 269 269 270 270 271 271 271 271 271 270 270 270 270 271 271
299 299 299 299 298 297 296 295 293 290 288 287 285 284 283 283 283 282 283 283 284 285 286 287 288 289 288 286 284 283 281 281 279 278 277 277 277 277 277 276 275 275 275 275 274 274 274 274 274 274 274 274 275 274 274 273 273 273 273 272 272 272 272 271 270 269 269 269 269 269 269 270 270 270 271 271 271 271 271 270 270 270 270 270 271
298 298 298 298 298 296 295 293 292 290 287 286 285 283 282 281 280 281 282 283 284 285 285 286 286 286 286 284 281 279 278 278 278 277 277 277 276 275 275 274 274 275 275 274 274 274 274 274 274 274 274 274 274 274 273 273 272 272 272 272 272 272 272 271 270 269 269 269 269 269 269 270 270 270 271 271 271 270 270 270 270 270 270 270 270
298 298 298 298 297 295 293 291 290 288 287 285 283 283 282 280 279 279 280 282 283 283 283 282 282 282 281 280 279 279 277 277 277 277 276 276 275 275 274 274 274 275 275 274 274 273 273 273 274 274 274 274 273 273 273 272 272 271 271 271 271 272 272 271 270 269 269 269 269 269 269 270 270 270 271 271 270 270 270 270 270 269 269 270 270
297 297 297 296 295 293 291 289 288 287 286 285 283 282 281 281 280 279 278 279 279 280 280 280 279 279 278 277 278 278 277 277 276 276 276 275 275 274 274 274 274 274 274 274 273 273 273 273 273 274 273 273 273 273 272 272 271 271 271 271 271 271 271 271 270 269 269 269 269 269 269 270 270 270 271 270 270 270 270 270 269 269 269 269 269
296 295 295 295 294 292 290 289 288 286 285 284 283 282 280 280 280 279 277 276 276 277 277 277 277 277 277 276 276 276 276 276 276 276 275 275 274 274 274 274 274 274 274 273 273 273 273 273 273 273 273 273 272 272 272 271 271 271 271 271 271 271 271 271 270 269 269 269 269 269 270 270 270 271 270 270 270 270 270 269 269 269 269 269 269
295 294 294 293 292 291 290 289 287 285 284 283 282 280 279 278 278 279 278 277 276 275 275 275 275 276 276 276 276 275 275 275 275 275 274 274 274 274 273 274 274 274 273 273 272 273 273 273 273 273 273 272 272 271 271 271 270 270 270 271 271 271 271 271 270 269 269 269 269 269 270 270 270 270 270 270 270 270 269 269 269 269 269 269 269
294 293 293 292 291 290 288 287 285 284 283 281 280 278 277 277 277 277 278 277 277 276 276 275 275 275 275 275 275 274 274 274 274 274 274 274 274 273 273 274 274 273 272 272 272 272 273 273 273 273 272 272 271 271 271 270 270 270 270 270 271 271 271 271 270 269 268 269 269 269 270 270 270 270 270 270 270 269 269 269 269 269 269 269 269
293 292 292 291 291 288 286 285 283 282 280 279 277 276 276 276 276 277 277 277 277 277 277 276 275 275 275 274 273 273 272 273 273 274 274 274 273 273 273 273 273 273 272 272 272 272 272 273 272 272 272 272 271 271 271 270 270 270 270 270 271 271 271 270 269 269 269 269 269 270 270 270 270 270 270 269 269 269 269 269 269 269 269 269 269
291 292 291 291 289 287 285 283 281 279 278 277 276 275 275 275 275 276 277 277 278 278 277 276 276 277 276 274 273 272 272 273 274 274 273 273 273 273 273 273 273 273 273 273 273 273 273 273 272 272 272 272 271 271 271 271 270 270 270 270 270 271 271 270 269 269 269 269 269 270 270 270 270 270 269 269 269 269 269 269 269 269 269 268 269
290 290 289 288 287 285 283 281 279 277 276 275 274 274 274 274 275 276 277 278 278 279 278 277 278 278 276 275 275 274 274 274 274 274 273 273 273 273 273 273 273 273 273 273 273 273 272 272 272 272 272 272 271 271 271 271 270 270 270 270 270 271 271 270 269 269 269 269 269 270 270 270 270 270 269 269 269 269 269 269 269 269 269 268 269
289 288 287 286 284 282 281 279 278 277 275 274 274 274 274 274 275 276 278 279 279 278 278 278 278 277 275 275 275 275 274 274 274 273 274 273 273 273 273 273 273 272 272 273 273 272 272 272 272 272 271 271 271 271 271 270 270 270 270 270 270 271 270 270 269 269 269 269 269 270 270 270 270 269 269 269 269 269 269 269 269 269 268 268 268
288 287 285 284 282 280 279 277 276 276 275 274 273 273 273 274 276 277 279 280 279 278 278 277 277 275 274 274 274 274 273 273 274 274 273 273 273 273 273 272 272 272 272 272 272 272 272 272 272 271 271 271 271 271 270 270 270 270 270 270 270 270 270 270 269 269 269 269 270 270 270 270 270 269 269 269 269 269 269 269 269 269 268 268 268
286 285 284 282 280 278 277 276 275 275 274 273 273 273 274 276 277 279 279 279 278 278 277 276 275 274 273 273 272 272 272 273 273 273 273 272 272 272 272 272 272 272 272 272 272 272 272 272 272 271 271 271 271 271 270 270 270 270 270 270 270 270 270 270 269 269 269 270 270 270 270 270 269 269 269 269 269 269 269 269 269 269 268 268 268
285 284 283 281 279 277 276 275 274 273 272 272 272 273 275 277 279 279 279 278 277 277 276 275 274 273 272 271 271 271 272 273 273 272 272 272 272 272 272 272 272 272 272 272 272 272 272 272 271 271 271 271 271 270 270 270 270 270 270 270 270 270 270 269 269 269 270 270 270 270 270 269 269 269 269 269 269 269 269 269 269 269 268 268 268
283 281 280 278 277 275 274 274 273 272 271 272 273 275 277 278 279 278 278 277 277 276 276 275 274 273 271 271 271 272 272 272 272 272 272 272 272 272 272 272 272 272 272 272 271 271 271 271 271 271 271 270 270 270 270 270 270 270 270 270 270 270 270 269 269 270 270 270 270 270 270 269 269 269 269 269 269 269 269 268 268 268 268 268 268
280 279 277 276 274 273 272 272 272 271 271 272 274 276 277 278 278 277 277 277 276 275 275 274 273 272 272 272 272 272 272 272 272 272 272 272 272 272 272 272 272 271 271 271 271 271 271 271 271 271 271 271 270 270 270 270 270 270 270 270 270 270 269 269 269 270 270 270 270 270 269 269 269 269 269 269 269 268 268 268 268 268 268 268 268
278 277 275 274 273 272 271 271 271 271 272 274 276 277 277 277 277 277 276 276 275 275 274 273 273 272 272 272 272 272 272 272 272 272 272 272 272 272 272 271 271 271 271 271 271 271 271 271 270 271 271 271 271 271 271 271 271 270 270 270 270 270 269 269 269 269 270 270 270 270 269 269 269 269 269 269 269 268 269 268 268 268 268 268 268
276 275 274 273 272 271 271 271 271 272 274 275 276 276 276 276 276 276 276 275 274 274 273 272 272 271 271 271 271 271 272 272 272 272 272 272 272 272 271 271 271 271 271 271 271 271 271 270 270 270 271 271 271 271 271 271 271 270 270 270 270 270 270 269 269 269 270 270 270 269 269 269 268 268 269 269 269 268 268 268 268 268 268 268 268
274 273 272 272 272 271 271 271 272 273 274 275 275 275 275 276 275 275 274 274 273 273 272 271 271 270 271 271 271 272 272 272 272 272 272 272 272 271 271 271 271 271 271 271 271 271 270 270 270 270 271 271 271 271 271 271 271 271 270 270 270 271 270 269 269 269 270 269 269 269 269 269 268 268 269 269 269 269 268 268 268 268 268 268 268
272 272 271 271 271 272 272 272 273 273 274 275 275 275 275 275 274 274 274 273 272 271 271 270 270 270 271 271 271 272 272 272 272 272 272 272 271 271 271 271 270 270 271 271 270 270 270 270 270 270 270 271 271 271 271 271 271 271 270 270 271 271 271 269 268 269 269 269 269 269 269 269 269 269 269 269 269 269 269 268 268 268 268 268 268
271 271 271 271 271 271 271 272 273 274 275 276 276 275 275 274 274 273 273 272 271 270 270 270 270 271 271 271 272 272 272 272 272 271 271 271 271 271 271 270 270 271 271 270 270 270 270 270 270 270 270 271 271 271 271 271 271 271 270 270 271 271 271 269 268 269 269 269 269 269 269 269 269 269 269 269 270 269 269 268 268 268 268 268 268
270 270 270 270 271 271 272 273 275 275 275 275 275 275 274 274 273 272 271 271 270 270 270 270 270 271 271 271 272 272 272 271 271 271 271 271 271 270 270 270 270 271 271 270 270 270 270 270 270 270 271 271 271 271 271 271 271 271 270 270 271 271 271 269 268 269 269 269 269 269 269 269 269 269 269 270 270 269 269 269 268 268 268 268 268
Wind_Speed
45 44 44 44 42 39 39 39 39 39 39 40 41 42 43 45 46 46 46 45 43 42 39 37 35 34 33 32 31 30 29 27 26 25 25 26 25 25 24 24 23 22 22 21 21 21 22 23 23 23 24 26 26 26 27 26 27 28 27 28 28 27 29 32 40 53 61 58 57 59 57 56 59 57 55 58 56 52 52 51 46 45 46 47 48
47 47 47 48 47 44 43 43 43 43 42 42 42 43 44 45 46 47 47 45 44 42 40 38 36 35 34 32 32 31 30 28 27 26 26 26 26 25 24 24 23 23 22 22 21 21 23 24 23 24 24 26 27 27 28 27 27 29 28 28 29 28 28 30 36 45 56 59 56 57 57 54 57 59 56 57 58 55 53 53 49 47 48 48 49
49 50 50 51 51 50 48 47 47 46 45 44 44 45 45 46 46 47 47 46 45 43 41 39 37 36 35 33 33 32 31 29 28 27 27 27 26 25 24 23 23 23 23 22 21 22 23 24 24 24 26 27 28 27 28 29 29 30 30 28 28 29 27 28 33 39 48 55 56 55 57 56 57 59 57 57 58 55 53 52 51 52 51 49 50
51 52 52 52 53 53 51 49 49 49 48 47 46 46 47 47 47 47 47 46 45 44 42 40 38 37 36 34 34 33 32 30 29 28 28 27 26 25 24 23 23 23 23 22 22 22 23 24 24 25 27 28 28 28 28 29 30 30 30 29 28 28 27 26 30 34 41 50 54 53 54 57 58 58 56 58 59 56 53 52 51 53 54 52 52
52 52 53 53 54 55 54 52 50 50 50 50 49 48 48 48 48 48 47 46 45 45 43 42 41 39 37 36 35 34 33 31 29 29 28 27 26 24 23 23 24 23 23 22 22 23 24 24 25 26 28 29 28 29 29 30 30 30 30 29 28 27 27 28 30 33 37 46 53 54 53 54 58 60 56 56 59 57 54 54 53 54 55 55 54
48 51 53 54 55 55 56 53 50 50 51 51 51 51 50 50 49 49 48 47 46 46 45 43 42 40 38 36 35 34 33 31 30 29 28 27 25 24 23 24 24 23 23 22 23 23 24 25 26 27 28 29 29 29 30 30 30 30 29 28 28 28 30 32 33 35 38 43 49 54 56 54 54 60 58 51 53 57 56 58 59 56 53 53 54
44 48 52 54 55 55 56 54 50 48 50 51 52 52 52 51 50 49 48 47 46 46 46 44 42 40 38 37 35 35 33 31 30 29 28 26 25 24 24 23 24 23 23 23 23 23 24 25 27 28 27 28 29 29 30 31 30 30 29 29 30 31 33 35 36 38 41 45 48 51 56 56 53 56 59 51 51 55 53 54 61 61 56 54 55
43 46 49 52 54 55 55 54 51 47 48 50 52 52 52 51 50 49 47 46 46 46 45 44 42 40 38 37 36 35 33 32 31 29 27 25 24 24 24 24 24 23 23 23 23 24 25 26 27 28 27 28 29 30 30 30 30 30 30 30 31 33 36 37 38 40 42 46 51 50 54 58 55 55 58 53 51 55 51 50 57 62 62 60 59
44 46 47 49 51 52 52 53 52 49 47 50 51 52 52 51 50 49 47 46 45 45 45 44 42 41 39 38 37 36 34 32 30 28 26 25 24 24 24 23 23 23 23 24 24 24 26 27 28 28 28 28 29 29 28 26 26 28 29 30 31 34 37 39 39 41 42 46 51 51 51 55 56 57 57 53 50 52 50 47 51 56 57 61 62
45 46 46 47 48 50 50 50 51 50 48 49 50 51 51 51 50 49 47 45 45 45 45 44 43 41 40 39 38 36 34 31 29 27 25 24 24 23 23 23 23 23 24 24 25 25 26 27 28 28 28 28 28 26 25 23 22 25 27 28 30 33 36 39 40 40 43 46 50 51 51 55 57 55 53 49 46 48 46 43 47 52 52 56 61
47 47 46 45 46 48 48 49 50 50 49 49 50 50 50 50 50 49 47 46 45 46 46 46 44 42 41 40 38 36 33 31 28 26 24 24 23 22 22 23 23 24 25 25 26 26 26 26 27 27 27 27 27 25 24 24 23 24 26 28 29 31 34 38 41 42 44 47 50 51 53 56 56 54 54 51 49 50 50 46 48 51 50 53 59
47 47 46 45 45 46 47 48 49 50 49 48 49 49 49 50 49 49 48 46 46 47 48 47 45 43 42 40 38 35 32 30 27 25 24 23 22 21 22 24 25 25 25 26 27 26 26 26 26 27 27 26 25 25 25 25 24 24 27 28 29 31 32 35 39 42 45 48 51 53 56 58 58 59 59 55 51 52 53 49 47 47 48 54 61
47 46 45 45 45 45 46 47 48 49 49 48 48 48 49 50 49 49 48 46 46 48 49 48 46 44 42 40 37 35 31 29 26 24 23 21 21 22 24 25 25 25 25 26 26 25 25 26 26 27 26 24 23 24 24 26 26 26 28 30 32 33 33 34 36 39 42 46 50 55 57 58 59 60 59 54 51 53 54 54 53 51 53 58 63
45 44 44 44 44 45 46 47 47 48 48 47 48 48 49 49 49 48 47 46 47 49 49 48 46 44 41 39 37 33 30 27 25 23 21 20 21 23 24 25 25 25 25 25 25 24 24 25 26 26 24 23 22 23 24 26 28 29 31 33 35 36 36 36 37 39 41 43 49 54 55 56 58 60 60 56 55 57 58 60 61 60 61 63 66
42 42 42 42 43 45 46 46 47 48 47 48 48 48 49 49 48 48 46 46 47 48 49 48 45 43 41 38 35 31 28 26 23 21 20 20 22 23 24 25 25 24 24 24 24 24 24 24 25 24 23 22 22 22 23 25 27 30 33 35 37 39 40 40 40 40 42 44 47 52 53 54 56 57 58 56 56 57 57 59 61 61 62 64 66
40 41 41 42 43 45 46 46 47 47 47 48 48 48 48 48 48 47 46 46 47 49 49 47 45 43 40 37 33 29 27 24 22 21 21 22 23 24 25 25 24 23 23 24 23 23 23 23 22 22 22 22 22 21 21 23 27 30 34 37 39 41 43 43 39 38 39 40 43 46 48 50 51 52 54 53 54 55 54 56 59 56 56 60 64
38 39 39 41 43 44 45 46 46 47 48 48 48 48 48 48 48 47 47 47 48 49 48 46 44 42 39 35 32 28 26 24 23 22 22 22 23 25 25 24 22 22 23 23 23 23 22 21 20 20 21 22 22 20 19 21 26 30 34 39 42 44 46 44 40 37 36 37 40 42 43 45 45 47 49 49 49 49 49 55 57 52 51 54 57
35 36 37 39 41 43 44 45 45 46 47 47 48 48 48 48 48 47 47 47 47 48 47 45 43 41 37 34 30 28 27 25 24 23 23 23 24 25 24 23 22 22 22 23 22 22 20 19 18 19 20 20 20 20 19 21 26 31 35 40 43 44 45 44 43 43 41 40 40 41 41 43 45 48 50 52 52 49 48 54 56 53 53 56 57
32 32 34 37 40 42 42 43 44 45 46 46 47 47 47 47 47 46 46 46 46 47 46 45 44 40 37 33 30 28 27 26 24 24 23 24 25 25 24 22 21 21 22 22 22 20 18 18 18 18 18 19 19 19 19 22 27 31 34 37 41 43 43 42 43 45 45 45 46 47 48 50 51 52 53 53 52 49 46 47 49 50 54 58 58
34 34 34 36 38 40 41 42 43 44 45 45 46 46 46 46 46 46 46 46 46 47 46 46 44 40 37 33 31 29 28 26 25 25 24 24 24 24 23 21 20 21 22 21 20 18 17 18 18 18 18 18 19 19 20 22 25 29 31 34 38 40 40 40 42 44 46 48 50 51 51 51 50 49 49 48 46 43 40 40 41 44 48 54 57
36 38 38 38 37 38 40 41 42 43 44 44 45 45 45 46 46 46 46 48 48 48 47 46 43 40 37 34 31 29 28 27 26 25 25 24 24 23 22 20 19 20 21 20 19 18 18 18 18 18 18 19 19 20 22 23 24 26 29 31 33 34 35 38 42 44 45 47 48 48 47 47 47 46 46 46 45 41 38 37 37 40 44 49 54
33 36 38 38 37 37 39 40 42 43 44 44 44 44 45 46 46 46 47 49 49 49 47 45 43 40 37 34 32 30 29 28 27 25 25 24 23 22 20 18 18 19 19 19 18 18 17 17 18 18 18 18 19 20 22 23 24 26 28 29 30 31 32 36 40 41 43 44 44 45 45 45 45 45 44 44 44 42 41 40 38 39 42 45 48
28 32 34 35 36 37 38 39 41 42 44 44 44 45 45 46 46 48 49 50 51 49 47 45 43 40 37 35 32 30 29 28 27 26 25 24 21 20 18 17 18 18 18 17 17 17 16 17 18 18 17 18 20 21 22 23 24 25 26 27 29 30 32 35 37 38 40 40 41 43 44 43 44 44 42 42 42 43 44 45 43 42 42 45 47
24 27 29 32 34 35 37 39 41 43 44 45 45 45 46 46 47 49 51 51 51 50 48 46 43 40 37 34 32 30 29 28 27 26 25 22 20 18 17 17 17 16 16 16 15 15 15 16 16 16 17 18 20 21 22 23 23 24 25 26 29 30 32 34 36 36 37 38 40 43 44 43 41 40 40 40 42 45 47 47 46 44 42 43 44
23 24 26 29 31 33 35 38 41 43 44 45 46 47 47 48 49 51 52 53 53 51 49 46 43 39 36 33 31 30 29 29 28 26 24 22 20 18 17 17 16 14 14 14 14 13 13 14 14 15 17 19 20 22 22 22 22 23 24 26 28 31 32 33 34 34 36 38 40 41 43 42 40 39 40 42 43 46 47 48 47 46 44 43 44
25 25 26 28 29 31 34 37 41 44 45 46 47 48 48 49 51 53 54 55 54 52 50 46 42 39 35 33 31 30 30 29 27 25 23 22 20 18 18 16 13 12 12 12 12 11 12 13 14 16 18 19 21 22 23 23 23 23 24 26 28 31 32 32 33 33 35 37 39 40 42 43 42 41 43 45 45 45 45 46 47 48 46 45 46
27 26 27 27 29 31 32 35 40 44 46 47 48 49 49 50 53 55 57 57 55 52 49 46 42 39 36 33 32 31 30 28 26 25 24 21 20 19 17 15 11 9 10 10 10 10 11 13 15 17 18 18 20 21 22 23 24 24 25 27 29 31 31 31 31 31 33 36 38 40 42 43 43 44 44 45 47 46 45 44 46 48 47 45 45
30 29 28 29 31 32 33 36 39 43 46 48 49 51 52 52 54 56 58 58 56 53 49 45 42 39 37 35 34 32 30 28 27 26 23 21 20 18 15 12 9 6 6 9 9 9 12 13 14 16 18 18 19 21 22 23 24 25 27 28 30 31 31 31 31 31 33 36 38 41 42 43 43 44 44 46 47 48 46 45 46 47 45 42 42
33 33 32 32 34 35 36 38 41 44 47 48 50 51 52 52 53 54 55 54 53 51 48 44 41 39 36 35 35 33 31 29 27 24 22 19 18 15 12 9 6 4 4 7 8 9 11 13 15 17 18 19 21 22 23 24 24 25 27 29 31 32 32 32 33 34 35 37 38 41 43 43 43 44 45 47 49 49 48 46 45 45 44 41 41
36 35 35 36 38 38 39 40 42 45 47 48 50 51 51 50 50 51 52 51 49 47 44 41 39 38 36 34 32 28 27 27 25 23 20 17 15 12 9 6 5 4 3 5 7 9 11 13 15 17 18 20 22 23 23 25 26 28 29 30 31 32 33 33 34 35 36 37 39 41 43 43 43 44 46 49 50 50 49 47 45 44 43 41 42
38 38 39 40 41 42 42 43 44 46 47 49 51 52 52 50 49 49 50 49 46 44 41 38 36 35 34 32 29 26 24 24 24 22 19 16 13 11 9 7 6 4 3 4 6 8 10 12 13 15 17 19 21 22 23 25 28 29 31 32 32 32 33 34 35 36 38 39 40 41 43 43 44 45 47 49 50 51 50 49 47 44 42 41 41
40 41 42 43 44 44 45 46 46 47 49 50 52 53 53 53 52 50 49 47 46 43 39 35 31 30 29 29 29 28 27 25 23 20 17 15 13 11 9 8 6 4 2 3 5 8 10 11 12 14 16 18 20 21 23 26 28 30 32 33 34 33 33 35 36 37 38 40 41 43 43 43 44 46 48 49 49 50 50 50 48 46 43 42 42
42 43 45 46 46 47 48 48 49 49 50 52 54 55 56 57 58 54 47 43 41 40 37 34 31 29 29 28 26 25 25 24 22 19 16 15 13 11 9 8 5 3 1 3 5 6 8 10 11 14 16 17 19 21 23 25 28 30 31 32 34 34 34 35 36 38 39 40 41 43 44 44 45 47 49 49 49 48 49 49 48 47 44 43 43
43 44 46 47 48 49 49 50 50 50 51 53 54 56 58 59 59 56 49 42 37 35 33 32 31 30 28 27 25 24 23 22 20 18 16 15 13 11 9 7 5 2 1 2 4 5 6 8 11 13 15 17 19 21 23 25 27 30 31 32 33 34 34 35 37 38 40 41 42 44 44 45 46 48 49 50 49 48 48 48 47 46 44 43 44
42 44 46 47 49 50 50 51 50 50 51 52 54 56 58 57 56 55 52 47 43 38 34 31 30 29 28 27 25 24 23 21 20 18 16 15 12 11 9 7 4 2 1 2 3 4 6 8 10 13 15 17 18 20 22 24 27 29 31 32 33 33 34 36 38 39 40 41 43 45 45 46 47 49 49 50 49 48 49 48 47 46 45 44 45
43 44 45 47 49 50 50 50 50 50 51 52 53 55 56 55 54 53 51 48 46 43 39 35 32 30 28 27 25 24 23 21 20 18 16 14 12 11 9 7 4 3 2 2 2 4 6 9 10 12 14 16 18 20 22 24 26 28 30 31 32 33 34 37 39 40 41 42 44 45 46 47 49 50 50 50 49 48 48 48 47 47 46 43 42
45 45 45 47 48 50 50 50 49 49 50 50 52 52 52 51 51 51 50 48 46 44 42 40 37 34 31 29 27 25 23 22 21 18 16 15 13 12 10 8 6 5 4 2 1 3 6 8 10 12 14 16 18 20 22 23 25 28 29 30 31 32 34 37 39 40 42 43 44 45 47 48 51 52 51 50 50 49 48 48 48 47 46 43 42
46 45 46 46 48 49 50 48 48 48 48 50 51 51 50 50 50 50 50 49 47 44 43 42 40 37 35 33 31 29 27 24 21 19 17 15 14 12 11 9 7 6 4 2 1 3 5 8 10 12 14 16 18 20 22 24 25 27 29 30 31 32 33 36 39 41 42 44 45 46 48 51 54 54 52 50 50 50 50 49 48 47 47 46 45
45 45 46 46 47 48 48 47 46 46 47 50 51 50 50 51 51 51 50 48 46 44 43 41 38 35 35 34 33 31 28 24 21 19 18 16 15 13 11 9 8 6 4 1 1 4 6 8 10 12 14 16 18 20 22 24 25 27 29 31 32 33 34 36 40 42 43 45 46 47 49 53 56 57 54 51 50 50 50 50 48 48 48 48 48
44 45 45 46 47 47 46 45 45 46 48 51 52 51 52 53 53 52 50 48 45 43 40 37 34 33 32 32 30 28 25 22 21 20 18 17 15 13 12 10 8 6 3 1 2 4 6 8 10 12 14 16 19 20 21 24 25 27 29 30 31 33 34 36 39 42 44 46 47 48 50 55 59 58 55 53 51 50 50 49 49 48 47 48 50
44 44 45 45 45 45 44 43 44 47 50 52 53 53 54 54 53 52 50 46 43 39 37 34 33 32 31 28 26 24 22 21 21 20 18 16 15 13 12 10 7 5 3 1 2 4 7 9 11 13 15 17 19 20 22 24 25 27 29 30 31 32 34 36 39 42 45 47 48 48 51 57 59 58 56 55 53 52 50 49 49 48 47 48 50
43 44 44 44 44 43 43 43 45 48 51 52 53 54 55 54 53 51 47 43 40 38 36 34 33 32 30 28 26 25 23 22 21 20 18 17 15 13 11 9 7 4 2 1 3 5 7 10 12 14 16 17 19 21 22 24 26 28 30 31 32 32 34 36 40 43 45 47 48 48 52 58 59 57 56 55 53 53 52 50 49 48 48 50 51
43 42 43 43 43 43 43 45 47 50 52 52 53 54 54 53 51 48 44 41 39 37 36 35 34 33 31 30 28 27 25 23 22 20 19 18 16 13 11 9 6 3 1 2 4 6 8 10 12 13 15 17 19 21 23 25 27 28 30 31 32 32 33 36 40 43 46 47 48 49 54 59 59 57 56 55 54 53 53 51 50 50 50 51 52
41 41 41 41 41 42 44 47 49 51 51 52 52 53 52 51 49 46 43 41 39 37 36 36 35 35 34 32 30 28 26 24 23 21 20 18 15 13 10 8 5 3 1 3 5 7 9 10 11 13 15 16 18 20 22 23 25 27 29 30 31 31 32 35 39 43 45 46 47 49 55 58 57 56 56 56 55 54 53 52 51 51 52 54 54
39 40 40 40 41 43 45 48 49 50 51 51 51 51 51 50 48 45 42 40 38 36 36 36 36 35 34 32 29 28 26 25 24 22 20 17 14 12 10 7 5 2 1 4 6 8 10 11 12 13 14 16 17 19 21 22 24 25 27 28 29 30 31 34 37 41 44 44 45 49 54 56 56 56 56 56 55 54 53 52 51 51 52 55 56
39 40 41 42 44 46 47 48 49 50 51 52 52 51 50 47 44 42 39 38 37 37 36 35 35 33 31 29 28 28 27 26 24 22 19 16 14 11 9 7 4 2 1 4 6 8 10 12 13 14 16 17 18 20 21 22 23 24 25 26 27 28 29 32 36 40 42 43 45 49 53 54 54 55 56 56 55 54 53 52 51 51 52 54 55
39 40 42 43 45 46 48 49 50 52 52 52 51 49 46 43 40 38 37 37 36 35 35 34 33 32 30 29 29 28 27 26 24 21 18 15 13 11 8 6 3 1 2 4 6 8 10 12 14 15 17 18 19 20 22 23 24 25 25 26 27 27 28 32 35 39 40 42 44 48 50 52 54 55 56 56 55 55 54 53 52 52 52 53 55
39 40 42 43 44 46 48 50 52 53 52 50 48 45 43 41 39 38 37 36 35 35 34 34 33 32 31 30 29 28 27 26 23 20 17 15 13 11 8 5 3 1 2 4 6 8 10 12 14 16 17 18 20 21 22 23 24 25 27 27 27 27 29 32 35 37 39 41 43 46 48 50 53 55 56 56 55 55 55 54 53 53 53 54 55
39 40 42 43 44 46 49 51 52 52 50 48 45 43 41 40 38 37 36 35 34 34 34 33 33 32 31 31 30 29 27 25 22 19 17 15 13 10 8 5 3 2 3 5 6 8 10 12 14 15 17 18 20 21 22 24 25 26 27 28 28 29 30 32 33 35 38 40 42 45 48 50 53 55 55 55 56 55 55 54 54 54 54 54 54
38 40 41 43 44 46 48 49 49 48 46 44 43 41 39 38 36 35 34 34 34 33 33 32 32 32 31 30 30 28 26 23 21 18 16 14 12 10 7 5 3 2 3 5 7 9 10 12 14 16 17 18 19 21 22 24 25 26 27 28 29 30 30 32 33 35 37 39 41 44 47 50 53 55 56 56 56 56 56 55 55 54 54 53 53
38 39 41 42 44 45 46 46 45 44 43 41 39 38 37 36 35 34 33 33 32 32 32 31 30 30 29 29 28 26 24 22 19 17 15 13 11 8 6 4 2 3 4 6 8 10 11 13 15 16 17 18 19 20 21 23 24 25 27 28 29 30 30 31 33 35 36 37 40 44 47 50 53 55 56 56 56 55 55 56 55 54 53 52 52
Wind_Direction
233 231 229 229 231 233 236 237 237 239 241 243 244 244 243 242 240 239 238 237 237 236 236 237 238 239 239 240 242 243 245 247 250 253 256 262 268 272 277 280 282 285 287 290 294 297 298 298 300 302 301 301 300 299 299 298 296 295 291 288 285 280 277 273 271 283 294 298 298 301 303 304 305 304 304 304 303 303 302 301 300 298 296 296 296
236 234 232 231 232 233 235 236 236 237 239 241 242 242 242 241 239 238 237 236 236 236 236 236 236 237 238 239 241 242 244 246 248 252 256 261 267 271 275 278 281 283 286 290 293 294 295 296 298 300 300 299 299 299 299 298 296 295 292 289 288 284 279 276 274 277 288 296 300 301 303 304 303 303 304 304 304 306 305 303 302 298 296 296 295
240 238 235 234 234 234 234 236 237 237 238 239 241 242 241 240 238 237 236 235 235 235 234 234 235 236 237 238 240 241 243 245 247 250 255 260 266 270 273 276 279 282 286 289 291 292 293 296 299 299 299 298 298 299 299 299 298 295 295 292 290 288 284 278 275 274 282 293 299 301 303 305 303 303 305 306 305 306 305 303 302 302 300 298 297
242 240 238 238 237 235 235 237 237 238 238 239 240 241 240 239 237 236 235 234 233 233 232 232 232 234 235 237 238 240 241 243 245 249 254 260 264 268 272 275 277 280 284 286 289 292 293 296 299 298 298 297 298 301 300 299 299 297 296 295 292 291 290 282 278 278 283 290 298 302 303 304 305 305 306 307 306 304 303 301 301 301 301 300 297
245 243 242 240 239 238 237 237 238 239 240 240 240 240 239 238 236 235 234 233 232 231 230 230 231 232 234 236 238 239 239 241 244 248 254 259 263 267 269 272 275 278 283 286 289 291 293 297 298 298 298 298 299 301 301 300 301 298 297 297 296 296 294 290 286 284 285 289 296 302 303 303 304 304 305 306 304 303 301 300 301 299 299 299 298
252 247 245 242 241 240 238 238 241 242 241 241 241 240 238 237 235 234 233 232 231 230 229 230 231 232 234 235 236 236 237 239 243 248 254 258 262 266 268 270 274 278 282 286 288 291 294 296 297 297 298 299 301 302 302 302 301 300 300 301 304 303 298 296 294 291 289 289 292 297 299 302 303 301 302 303 300 300 299 299 301 299 296 298 297
258 252 247 244 242 241 240 240 243 245 243 242 241 239 238 237 235 234 233 232 230 230 229 229 230 231 232 233 234 235 235 238 242 247 253 258 261 264 267 270 273 278 282 285 288 292 295 296 296 297 298 300 303 304 303 304 304 306 308 308 308 305 300 298 295 292 290 288 290 291 293 298 300 296 298 299 296 295 295 295 299 299 297 295 294
259 256 250 246 244 243 242 241 242 244 244 241 239 239 238 237 235 234 233 231 231 231 229 229 229 230 231 232 232 233 235 237 242 248 252 256 260 263 266 269 273 278 282 285 289 292 294 296 295 297 300 303 305 306 307 309 311 310 308 305 302 298 296 296 292 290 287 285 288 290 289 293 296 294 294 294 291 292 291 290 294 296 296 295 294
259 257 252 250 248 244 242 241 240 241 241 239 239 238 237 236 235 234 233 231 231 230 229 229 229 229 230 230 231 232 234 237 242 247 251 255 258 261 265 269 273 279 283 286 290 292 294 295 296 299 304 306 308 310 310 308 304 299 294 293 292 291 290 291 289 288 288 286 288 290 287 288 291 291 292 290 288 292 291 289 292 293 294 295 294
259 257 256 255 251 244 241 241 240 239 239 239 238 237 237 236 235 234 232 230 230 229 228 227 228 229 229 230 230 230 233 237 242 247 250 253 257 260 264 270 275 281 285 287 289 292 294 296 299 304 307 308 308 308 306 302 296 290 285 283 286 286 286 287 286 286 287 286 287 288 286 286 288 288 289 287 287 291 290 287 290 293 293 293 293
259 258 258 257 250 243 240 240 240 239 239 239 238 237 236 235 234 233 231 229 229 228 227 227 227 227 228 228 229 229 232 236 241 245 248 251 255 259 265 272 278 282 285 287 290 293 295 298 302 305 306 307 306 306 307 304 298 292 284 280 282 282 281 284 285 285 285 284 285 286 284 285 285 285 286 286 285 287 287 285 286 288 287 287 290
258 257 256 253 247 243 241 240 239 239 239 239 238 236 236 235 233 232 230 229 228 228 227 226 226 226 226 226 227 228 231 236 239 242 246 249 256 262 268 274 278 282 286 289 292 294 297 301 304 305 306 307 308 309 309 305 303 298 287 280 280 279 279 281 283 284 285 284 285 285 283 284 285 285 286 287 286 285 286 284 282 281 281 281 283
257 255 253 250 246 243 241 240 240 239 239 239 237 236 235 234 233 232 230 229 228 227 226 225 225 225 224 225 226 227 231 235 237 240 244 250 259 266 271 274 277 282 286 288 291 294 299 301 302 303 305 308 309 311 312 310 309 303 291 286 287 286 282 281 280 280 282 283 283 283 283 284 285 285 286 286 286 285 284 283 281 279 278 278 280
255 253 251 249 246 243 242 241 240 240 239 238 237 235 235 234 233 232 229 228 227 226 225 224 224 224 223 223 224 227 230 232 233 237 243 251 259 264 269 272 275 280 284 286 289 294 297 298 299 301 304 308 313 317 316 311 308 303 298 297 297 293 289 286 285 285 283 283 282 282 284 286 285 287 290 288 285 284 282 282 282 280 278 279 281
254 252 250 248 246 243 242 241 240 239 238 236 236 235 234 233 232 230 228 227 227 226 225 224 223 222 221 222 224 226 227 229 231 237 245 251 257 262 267 271 275 279 282 285 288 291 293 294 296 301 307 312 320 321 313 305 302 301 299 296 295 295 295 294 294 293 290 288 286 285 287 288 287 289 291 290 287 286 285 284 284 282 281 281 280
252 250 249 248 246 244 242 240 239 237 236 235 234 234 233 232 231 229 227 226 225 225 224 223 221 220 220 221 223 223 225 228 232 239 246 251 256 261 265 268 273 278 281 282 284 287 289 292 298 305 311 315 319 318 309 302 300 298 297 298 301 302 301 301 298 294 291 288 286 285 285 286 287 287 288 288 287 288 288 286 284 282 280 279 278
251 250 249 249 247 245 242 240 238 237 236 235 234 233 232 231 229 228 226 224 224 223 222 220 219 219 219 220 220 221 224 230 234 239 244 250 254 258 262 266 272 276 277 279 282 285 288 293 303 309 311 313 315 316 312 305 300 301 303 306 305 303 303 304 303 298 295 292 290 288 287 286 287 286 286 286 285 286 287 286 284 283 281 279 278
250 250 250 250 247 245 243 240 239 238 237 237 236 234 232 231 229 228 226 225 223 221 220 218 217 217 218 218 218 221 226 229 232 237 243 248 252 256 260 265 269 272 275 277 280 284 290 298 306 308 308 311 314 316 317 311 306 306 306 304 303 303 306 310 310 309 308 303 298 294 290 288 288 288 288 287 286 286 284 280 279 280 279 277 277
250 250 250 249 247 244 242 241 240 241 240 239 237 235 233 232 230 227 226 225 223 220 217 216 216 215 215 215 216 221 226 228 232 237 242 246 250 255 259 263 266 270 273 275 279 285 294 300 304 306 308 311 316 321 320 312 305 303 302 301 302 306 312 315 315 313 310 305 301 299 298 297 295 295 295 294 294 293 288 282 280 277 275 275 275
252 248 247 246 246 245 243 242 242 242 241 239 237 235 234 232 229 226 224 223 220 218 216 214 214 214 213 214 216 221 226 228 231 236 239 243 248 254 257 260 265 268 271 274 281 289 295 300 305 309 311 315 321 324 318 309 304 301 301 303 305 310 315 315 310 307 304 303 303 304 304 303 302 302 303 303 303 300 295 290 287 282 278 275 274
254 248 245 243 244 244 244 243 242 241 240 237 235 234 233 231 229 225 223 220 216 214 213 212 212 212 213 214 217 219 224 228 231 233 236 240 244 250 255 259 263 267 271 275 283 290 296 303 308 311 317 324 326 321 314 312 310 306 306 309 311 313 312 307 305 306 307 307 309 309 309 309 309 309 309 310 311 307 299 293 289 287 284 280 275
260 253 248 245 245 245 243 242 240 239 237 235 234 233 231 230 228 225 222 218 214 211 211 210 210 211 212 214 215 217 221 226 228 230 233 237 240 245 251 255 259 263 269 275 282 290 298 304 309 316 326 328 323 318 317 318 315 312 313 315 315 312 307 303 306 310 311 312 314 315 316 316 315 313 310 310 313 311 305 299 292 286 284 281 278
267 260 254 251 250 247 245 244 241 239 237 234 233 231 230 228 226 224 221 217 212 209 208 209 210 211 212 212 213 215 219 222 224 227 230 233 235 238 243 248 253 258 264 272 282 291 299 306 313 323 329 323 319 320 321 320 317 317 319 319 316 312 309 309 311 313 315 318 320 320 320 319 317 314 308 306 309 309 307 305 299 293 286 281 279
271 265 260 257 254 251 249 247 244 240 237 234 231 229 229 227 224 221 219 215 212 209 207 208 210 211 212 212 212 215 217 220 222 223 226 228 229 231 236 242 248 254 262 273 283 293 303 312 320 324 324 322 322 321 319 319 320 322 324 322 318 316 315 315 318 320 322 324 323 321 321 319 315 311 307 305 306 308 308 306 304 304 299 291 286
277 270 264 260 258 256 253 250 246 242 238 235 231 228 227 225 222 218 215 212 211 209 207 208 210 211 212 214 216 218 218 218 219 220 222 225 226 227 231 236 242 249 258 272 286 296 307 316 320 322 324 324 322 319 319 323 326 327 329 326 322 322 323 324 327 328 326 324 322 320 320 319 315 310 308 309 309 309 310 308 307 307 306 302 298
279 272 266 262 259 257 256 252 247 242 237 234 231 230 228 225 221 216 212 209 209 208 207 208 208 210 213 215 217 219 219 218 219 220 221 223 223 224 227 230 235 244 256 272 288 300 311 319 322 325 326 323 321 321 324 327 329 330 332 330 328 329 330 332 333 330 326 323 321 319 319 320 318 315 315 316 314 313 312 310 308 307 305 303 301
276 273 270 267 263 261 261 257 250 243 237 233 229 228 227 225 222 217 211 208 207 207 207 207 207 209 211 214 216 218 218 218 219 221 221 221 220 221 223 225 228 238 256 276 294 309 320 327 328 325 321 319 320 323 324 326 330 333 334 334 334 333 334 336 336 332 328 326 324 322 322 321 320 319 319 318 317 315 314 311 307 305 305 303 301
277 274 271 268 265 263 261 257 251 244 238 233 229 226 225 223 220 218 214 210 207 206 205 206 209 211 213 215 215 214 214 217 220 221 221 220 219 219 221 225 229 236 265 290 311 326 329 328 324 318 316 318 322 324 326 328 332 335 336 338 338 336 337 339 338 336 333 329 325 324 324 323 322 321 321 319 317 316 315 313 309 306 305 302 297
275 273 269 265 262 259 256 253 248 242 237 233 229 227 225 223 220 218 216 213 212 211 210 210 211 214 217 219 218 217 217 217 218 220 221 221 221 221 221 227 238 248 278 301 319 328 325 321 319 317 319 325 328 330 332 333 336 339 341 341 340 339 340 342 342 340 337 332 328 326 326 324 323 323 321 319 318 317 316 314 311 308 305 300 295
271 268 265 262 258 254 250 247 243 238 234 231 226 222 221 220 219 217 214 213 214 215 216 218 218 219 218 218 218 221 224 221 215 213 215 217 218 221 223 228 245 264 286 305 316 322 321 319 319 322 327 332 334 335 337 339 341 343 343 343 342 341 342 344 345 342 338 334 331 329 327 325 324 323 322 320 319 318 317 315 312 309 305 299 294
270 267 265 263 259 253 247 243 238 233 230 228 224 219 214 212 212 212 213 212 212 213 216 219 220 220 216 211 207 206 209 212 210 208 208 207 209 213 215 219 233 252 280 306 315 320 321 321 323 328 334 336 337 338 342 344 345 345 343 342 343 343 343 345 346 344 340 337 333 331 329 327 324 323 322 321 319 318 317 316 313 310 306 299 295
271 270 268 264 259 252 245 240 234 229 225 222 220 216 210 205 202 204 207 210 210 210 210 211 211 209 206 204 204 202 200 201 203 203 200 199 202 207 209 215 226 237 267 310 318 320 320 323 330 336 338 338 340 343 346 347 347 346 343 341 341 343 344 346 346 346 343 339 335 332 330 328 325 324 323 322 320 317 316 316 315 312 307 301 296
274 272 269 264 257 249 242 237 233 228 224 221 216 212 208 204 200 198 199 202 206 206 204 202 201 198 195 196 200 202 200 197 197 196 194 195 199 201 205 214 222 226 263 316 321 319 321 328 336 340 341 342 343 346 348 349 348 346 343 340 340 342 344 346 348 347 345 341 336 333 331 329 327 325 324 322 320 317 316 315 314 312 309 304 299
275 271 267 264 258 251 245 241 236 229 224 221 215 209 205 203 199 194 189 187 190 193 193 193 193 192 191 191 191 193 195 194 193 191 190 193 195 197 203 209 210 208 254 314 314 314 325 337 342 343 343 344 345 346 349 351 349 346 343 341 340 342 344 347 350 349 345 340 336 334 334 331 328 326 325 323 321 318 316 315 314 313 309 305 302
271 267 264 261 257 253 248 244 238 230 223 219 213 206 202 198 195 192 188 183 180 179 179 181 184 187 189 189 187 188 190 190 190 190 190 190 190 193 200 202 192 188 229 287 297 317 339 346 347 345 344 344 345 346 347 349 348 346 344 341 341 342 345 349 352 349 344 339 337 336 336 333 329 328 326 324 321 319 317 316 315 313 310 306 303
264 261 259 257 254 250 247 242 235 229 224 218 209 202 198 194 191 189 187 184 182 180 178 176 177 180 184 185 184 185 187 189 190 190 188 186 186 190 196 194 180 177 209 246 288 337 351 350 348 348 346 345 346 345 346 347 346 345 344 342 341 342 346 351 352 348 342 339 338 337 336 333 331 329 327 325 322 320 318 317 315 314 311 307 302
262 258 256 254 250 246 242 237 232 226 221 212 202 196 194 191 188 186 185 184 184 182 180 177 176 176 179 180 181 183 187 192 193 189 184 182 183 186 187 183 176 182 198 214 314 358 354 350 351 350 348 348 347 345 345 346 344 343 342 341 341 343 348 352 352 348 343 339 338 337 336 334 332 331 329 326 324 322 320 318 317 314 312 308 303
262 258 254 251 247 241 236 232 226 220 213 204 197 194 191 188 186 185 185 185 185 184 182 181 181 182 182 181 181 184 188 192 190 184 180 179 181 182 180 178 178 184 189 181 40 4 355 354 354 352 349 349 348 346 346 346 344 343 341 341 342 345 350 353 354 350 344 340 338 338 337 335 333 332 330 327 325 324 322 320 318 315 313 311 307
256 251 248 244 241 237 232 227 220 213 206 199 194 191 189 186 184 184 185 186 187 187 186 185 185 185 184 184 185 186 188 188 184 179 177 179 179 178 177 179 182 183 177 144 34 3 360 359 355 351 350 348 348 348 348 347 345 343 341 341 342 346 351 355 355 350 345 341 340 339 337 336 334 333 331 329 327 325 323 321 319 317 315 313 310
252 246 241 238 234 231 227 222 215 208 201 196 193 190 188 186 184 185 187 188 188 187 187 185 184 183 183 185 187 185 183 181 180 178 178 178 177 175 177 181 181 176 162 118 23 3 1 358 354 351 349 348 348 349 349 348 347 344 342 342 342 346 352 357 355 350 345 342 341 339 337 336 335 334 332 331 329 327 324 322 320 319 317 314 313
248 241 237 233 229 225 221 215 210 204 198 194 191 188 186 185 185 187 189 189 187 185 184 182 181 180 181 184 184 182 180 180 179 178 177 175 175 177 180 181 176 166 153 79 11 5 360 355 352 350 348 347 348 349 349 350 349 346 343 343 343 346 352 357 356 352 347 343 341 339 337 336 336 335 333 332 331 329 326 324 322 321 320 318 316
244 238 232 228 223 219 215 208 203 198 194 191 189 187 186 186 188 189 189 187 184 182 179 178 178 179 179 181 182 181 181 180 178 176 175 175 177 180 180 177 173 165 157 21 2 2 358 354 351 349 348 347 347 348 349 350 349 347 345 343 344 347 353 357 357 353 348 344 342 339 337 337 337 336 334 334 332 330 328 326 324 324 323 322 322
240 233 228 223 218 213 208 202 197 193 190 188 187 187 187 189 189 188 186 183 182 180 178 176 177 178 179 181 183 182 180 178 176 175 176 177 180 181 179 177 175 173 181 345 356 357 356 354 351 349 348 348 348 348 349 349 349 348 345 343 344 348 354 358 358 354 349 345 342 339 337 337 338 337 336 335 334 331 330 329 327 327 326 325 325
231 224 219 214 208 204 200 196 192 188 187 186 187 187 189 189 188 185 182 181 180 179 178 178 178 179 181 182 182 181 178 176 176 177 178 179 180 180 180 180 180 183 255 342 353 354 353 353 350 349 349 349 349 348 349 349 349 348 345 342 343 348 354 359 358 355 350 346 342 338 336 338 339 338 337 337 336 334 332 331 330 329 329 330 330
221 214 208 202 197 193 190 188 186 184 184 185 186 187 187 187 184 181 180 178 177 177 178 179 180 182 183 181 179 177 176 176 177 178 178 178 180 181 183 183 183 190 312 345 349 350 349 349 347 347 349 350 350 349 349 348 349 348 345 342 342 347 354 359 359 356 353 348 340 336 337 338 340 340 339 338 338 336 334 333 332 331 331 333 333
210 204 199 193 189 185 183 182 182 183 184 185 187 186 184 183 180 178 176 175 176 177 178 180 182 182 181 178 176 176 176 177 177 177 177 178 181 184 185 183 186 202 328 346 347 346 347 346 345 345 348 350 351 351 349 348 349 349 346 343 342 345 353 360 360 357 354 347 339 337 338 340 341 342 341 340 339 338 336 336 335 334 334 335 336
200 195 191 187 183 181 180 180 181 182 183 185 184 182 178 176 176 174 174 174 176 177 178 180 181 180 178 177 177 176 176 176 176 175 176 180 183 185 185 186 190 235 330 342 345 344 344 344 344 344 345 348 350 351 349 348 349 349 347 344 342 344 353 0 1 357 351 344 339 339 341 342 343 344 344 343 341 340 339 339 338 337 337 338 338
190 186 184 182 180 179 179 179 180 181 180 180 179 176 173 172 173 172 172 174 175 177 178 179 179 177 176 176 176 176 176 175 175 175 177 181 184 185 185 187 195 260 321 334 340 341 341 342 342 342 344 346 349 349 348 347 348 349 348 345 342 344 353 0 0 355 348 342 340 342 345 346 346 347 346 345 344 343 342 341 340 340 340 341 342
182 180 178 178 178 179 179 179 179 178 176 175 174 172 170 170 170 170 171 173 175 176 177 178 177 176 176 175 176 176 176 175 174 176 179 182 184 184 184 187 202 247 309 327 333 335 338 340 341 341 342 345 347 347 347 347 348 349 348 344 341 344 353 360 359 353 346 342 343 346 348 349 349 350 349 348 347 346 345 344 343 343 343 343 345
174 175 175 175 176 176 176 176 176 174 173 172 172 169 167 167 168 169 171 173 175 176 177 177 176 175 175 175 176 176 175 174 176 178 181 182 183 183 184 192 213 263 308 320 327 333 336 339 340 341 341 344 346 347 346 346 348 349 347 343 341 346 355 359 356 350 345 343 346 350 351 351 351 352 352 352 350 349 348 348 347 346 345 345 346
170 171 171 172 172 172 171 172 171 170 169 169 168 166 165 166 167 169 172 174 175 175 175 175 175 175 175 175 176 175 175 175 177 180 182 183 183 183 187 198 229 281 307 317 325 332 336 338 340 341 341 343 346 346 344 345 348 349 347 344 343 347 355 358 353 347 344 347 351 354 353 352 353 354 354 354 353 352 352 351 350 349 348 347 347